Flag for Germany Weather past 2 weeks in Melle, Lower Saxony, Germany

36 °F

Passing clouds.

Feels Like: 30 °F
Forecast: 34 / 42 °F
Wind: 7 mph from West

Location: Muenster / Osnabrueck

Current Time: Nov 26, 2015 at 1:50:25 AM

Latest Report: Nov 26, 2015 at 12:20 AM

Visibility: N/A

Pressure: 29.77 "Hg

Humidity: 100%

Dew point: 36 °F

Location of MelleLocation

Historic Weather in Melle — Graph


Melle temperature yesterday

Maximum temperature yesterday: 45 °F (at 11:50 AM)
Minimum temperature yesterday: 37 °F (at 12:20 AM)
Average temperature yesterday: 41 °F

Past Weeks' High & Low Weather Summary

High61 °F (Nov 17, 9:50 PM)100% (Nov 15, 4:50 AM)30.27 "Hg (Nov 15, 4:50 AM)
Low30 °F (Nov 22, 5:20 AM)47% (Nov 13, 4:20 PM)29.36 "Hg (Nov 21, 3:50 AM)
Average48 °F83%29.87 "Hg
* Reported Nov 11 12:50 AM — Nov 26 12:20 AM, Melle, Weather by CustomWeather, © 2015

Note: Actual official high and low records may vary slightly from our data, if they occured in-between our weather recording intervals... More about our weather records


Melle weather history for previous 24 hours

Time TempWeatherWind HumidityBarometerVisibility
12:20 AM
Thu, Nov 26
36 °FPassing clouds.7 mph100%29.77 "HgN/A
11:50 PM
Wed, Nov 25
37 °FPassing clouds.6 mph93%29.77 "HgN/A
11:20 PM39 °FPassing clouds.5 mph93%29.74 "HgN/A
10:50 PM39 °FPassing clouds.6 mph93%29.74 "HgN/A
10:20 PM39 °FPassing clouds.7 mph100%29.74 "HgN/A
9:50 PM41 °FPassing clouds.8 mph93%29.74 "HgN/A
9:20 PM39 °FPassing clouds.7 mph100%29.74 "HgN/A
8:50 PM41 °FPassing clouds.7 mph93%29.71 "HgN/A
8:20 PM41 °FPassing clouds.7 mph93%29.71 "HgN/A
7:50 PM39 °FPassing clouds.7 mph100%29.71 "HgN/A
7:20 PM39 °FPassing clouds.5 mph93%29.68 "HgN/A
6:50 PM41 °FPassing clouds.8 mph93%29.68 "HgN/A
6:20 PM41 °FPassing clouds.8 mph93%29.68 "HgN/A
5:50 PM43 °FPassing clouds.7 mph87%29.65 "HgN/A
5:20 PM41 °FPartly cloudy.1 mph87%29.65 "HgN/A
4:50 PM43 °FPartly cloudy.2 mph93%29.65 "HgN/A
4:20 PM41 °FBroken clouds.3 mph93%29.65 "HgN/A
3:50 PM43 °FScattered clouds.7 mph93%29.62 "HgN/A
3:20 PM45 °FPartly sunny.3 mph87%29.62 "HgN/A
2:50 PM45 °FPartly sunny.7 mph87%29.62 "HgN/A
2:20 PM45 °FPartly sunny.10 mph87%29.62 "HgN/A
1:50 PM45 °FPartly sunny.10 mph87%29.62 "HgN/A
1:20 PM45 °FBroken clouds.13 mph87%29.62 "HgN/A
12:50 PM45 °FBroken clouds.12 mph87%29.65 "Hg4 mi
12:20 PM45 °FBroken clouds.12 mph87%29.65 "Hg4 mi
11:50 AM45 °FFog.9 mph87%29.62 "Hg3 mi
11:20 AM43 °FSprinkles. Fog.7 mph93%29.65 "Hg3 mi
10:50 AM43 °FSprinkles. Fog.5 mph93%29.65 "Hg3 mi
10:20 AM43 °FSprinkles. Fog.7 mph93%29.65 "Hg3 mi
9:50 AM43 °FFog.7 mph93%29.65 "Hg2 mi
9:20 AM41 °FFog.8 mph100%29.65 "Hg2 mi
8:50 AM41 °FFog.8 mph93%29.65 "Hg2 mi
8:20 AM41 °FFog.9 mph93%29.65 "Hg2 mi
7:50 AM41 °FFog.9 mph93%29.62 "Hg2 mi
7:20 AM39 °FFog.7 mph100%29.62 "Hg3 mi
6:50 AM39 °FPassing clouds.9 mph100%29.62 "Hg4 mi
6:20 AM39 °FPassing clouds.9 mph100%29.62 "Hg4 mi
5:50 AM39 °FLight rain. Passing clouds.8 mph93%29.65 "Hg4 mi
5:20 AM39 °FPassing clouds.7 mph93%29.65 "Hg4 mi
4:20 AM39 °FPassing clouds.8 mph93%29.65 "Hg5 mi
3:50 AM39 °FPassing clouds.8 mph93%29.65 "Hg5 mi
3:20 AM37 °FPassing clouds.9 mph100%29.68 "Hg5 mi
2:50 AM37 °FPassing clouds.9 mph100%29.68 "Hg5 mi
2:20 AM37 °FPassing clouds.9 mph100%29.68 "HgN/A
1:20 AM37 °FPassing clouds.9 mph93%29.68 "Hg6 mi
Weather by CustomWeather, © 2015

See weather overviewHow to use our weather pages